TimeCST,TemperatureF,Dew PointF,Humidity,Sea Level PressureIn,VisibilityMPH,Wind Direction,Wind SpeedMPH,Gust SpeedMPH,PrecipitationIn,Events,Conditions,WindDirDegrees,DateUTC
2:45 AM,83,65,44,29.99,5,NNW,2.2,,,,Scattered Clouds,340,2012-11-01 08:45:00
5:45 AM,66,64,90,30.02,6,,89.5,,,,Scattered Clouds,,2012-11-01 11:45:00
5:45 AM,68.0,64.4,88,29.96,7.0,NNW,5.8,-,N/A,,Scattered Clouds,330,2012-11-01 11:45:00
6:45 AM,68.0,64.4,88,29.96,7.0,NNW,5.8,-,N/A,,Scattered Clouds,330,2012-11-01 12:45:00
7:45 AM,69.8,64.4,83,30.01,7.0,Calm,Calm,-,N/A,,Scattered Clouds,0,2012-11-01 13:45:00
8:50 AM,80,69,61,30.06,6,North,4.5,,,,Scattered Clouds,0,2012-11-01 14:50:00
9:45 AM,78.8,69.8,74,30.03,7.0,Calm,Calm,-,N/A,,Scattered Clouds,0,2012-11-01 15:45:00
10:45 AM,84.2,77.0,79,30.02,7.0,NNE,11.5,-,N/A,,Scattered Clouds,20,2012-11-01 16:45:00
11:45 AM,86.0,77.0,74,30.00,7.0,NNE,11.5,-,N/A,,Scattered Clouds,30,2012-11-01 17:45:00
11:50 AM,90,65,34,30.02,6,ENE,4.5,,,,Scattered Clouds,70,2012-11-01 17:50:00
12:45 PM,86.0,77.0,74,29.99,7.0,NNE,11.5,-,N/A,,Scattered Clouds,30,2012-11-01 18:45:00
1:45 PM,86.0,77.0,74,29.94,7.0,NNE,11.5,-,N/A,,Mostly Cloudy,20,2012-11-01 19:45:00
2:44 PM,87.8,77.0,70,29.94,7.0,NNE,9.2,-,N/A,,Scattered Clouds,30,2012-11-01 20:44:00
2:50 PM,89,77,61,29.96,6,ENE,6.7,,,,Partly Cloudy,70,2012-11-01 20:50:00
3:45 PM,86.0,77.0,74,29.93,7.0,ENE,9.2,-,N/A,,Mostly Cloudy,60,2012-11-01 21:45:00
4:45 PM,86.0,77.0,74,29.94,7.0,ENE,9.2,-,N/A,,Mostly Cloudy,60,2012-11-01 22:45:00
5:44 PM,82.4,75.2,79,29.95,7.0,ENE,6.9,-,N/A,,Scattered Clouds,60,2012-11-01 23:44:00
5:50 PM,78,71,73,29.98,5,ENE,4.5,,,,Partly Cloudy,70,2012-11-01 23:50:00
6:45 PM,78.8,71.6,78,29.96,7.0,NNE,6.9,-,N/A,,Scattered Clouds,30,2012-11-02 00:45:00
7:45 PM,77.0,69.8,78,29.99,7.0,Calm,Calm,-,N/A,,Scattered Clouds,0,2012-11-02 01:45:00
8:40 PM,75.2,66.2,73,30.00,7.0,Calm,Calm,-,N/A,,Scattered Clouds,0,2012-11-02 02:40:00
8:50 PM,76,69,74,30.04,5,NE,4.5,,,,Scattered Clouds,50,2012-11-02 02:50:00
11:50 PM,72,69,85,30.02,5,NE,2.2,,,,Scattered Clouds,40,2012-11-02 05:50:00